Prestonsburg, KY

11:45 AM EDT on April 30, 2017 (GMT -0400)
Prestonsburg

Weather History for KK22 - May, 2013

Change the Weather History Date:

Wednesday, May 22, 2013

  Actual Average (KJKL) Record (KJKL)
Temperature  
Mean Temperature 72 °F -  
Max Temperature 84 °F 72 °F 86 °F (2007)
Min Temperature 61 °F 54 °F 38 °F (1993)
Cooling Degree Days 8    
Growing Degree Days 22 (Base 50)    
Moisture  
Dew Point 63 °F    
Average Humidity 74    
Maximum Humidity 98    
Minimum Humidity 46    
Precipitation  
Precipitation 0.00 in - - ()
Sea Level Pressure  
Sea Level Pressure 29.90 in    
Wind  
Wind Speed 4 mph (SSW)    
Max Wind Speed 15 mph    
Max Gust Speed 24 mph    
Visibility 10 miles    
Events Rain    
Averages and records for this station are not official NWS values.
T = Trace of Precipitation, MM = Missing Value Source: NWS Daily Summary

Daily Weather History Graph

Daily Weather History Graph

Search for Another Location

Airport or City:

Trip Planner

Search our weather history database for the weather conditions in past years. The results will help you decide how hot, cold, wet, or windy it might be!

Date:

Astronomy

May. 22, 2013 Rise Set
Actual Time 6:15 AM EDT 8:39 PM EDT
Civil Twilight 5:45 AM EDT 9:09 PM EDT
Nautical Twilight 5:08 AM EDT 9:46 PM EDT
Astronomical Twilight 4:27 AM EDT 10:27 PM EDT
Moon 6:02 PM EDT (5/22) 4:15 AM EDT (5/22)
Length of Visible Light 15h 24m
Length of Day
14h 24m
Waxing Gibbous, 91% of the Moon is Illuminated
May 22
Waxing Gibbous
May 25
Full
May 31
Last Quarter
Jun 8
New
Jun 16
First Quarter

Hourly Weather History & Observations

Time (EDT) Temp. Heat Index Dew Point Humidity Pressure Visibility Wind Dir Wind Speed Gust Speed Precip Events Conditions
12:15 AM 65.5 °F - 61.7 °F 88% 29.97 in 10.0 mi SSE 5.8 mph - N/A   Clear
12:35 AM 65.5 °F - 61.3 °F 86% 29.97 in 10.0 mi SSE 4.6 mph - N/A   Clear
12:55 AM 63.0 °F - 61.9 °F 96% 29.96 in 10.0 mi Calm Calm - N/A   Clear
1:15 AM 63.7 °F - 61.0 °F 91% 29.95 in 10.0 mi Calm Calm - N/A   Clear
1:35 AM 64.6 °F - 61.2 °F 89% 29.94 in 10.0 mi SSE 4.6 mph - N/A   Clear
1:55 AM 63.1 °F - 61.0 °F 93% 29.93 in 10.0 mi Calm Calm - N/A   Clear
2:15 AM 64.0 °F - 61.0 °F 90% 29.92 in 10.0 mi South 3.5 mph - N/A   Clear
2:35 AM 63.7 °F - 60.8 °F 90% 29.92 in 10.0 mi SSW 3.5 mph - N/A   Clear
2:55 AM 63.9 °F - 60.8 °F 90% 29.92 in 10.0 mi Calm Calm - N/A   Clear
3:15 AM 63.7 °F - 60.8 °F 90% 29.91 in 10.0 mi Calm Calm - N/A   Clear
5:55 AM 62.2 °F - 59.5 °F 91% 29.90 in 10.0 mi Calm Calm - N/A   Clear
6:15 AM 61.7 °F - 59.4 °F 92% 29.91 in 10.0 mi Calm Calm - N/A   Clear
6:35 AM 61.7 °F - 59.5 °F 93% 29.92 in 10.0 mi Calm Calm - N/A   Clear
6:55 AM 63.5 °F - 59.4 °F 86% 29.92 in 10.0 mi Calm Calm - N/A   Clear
7:15 AM 64.0 °F - 60.1 °F 87% 29.92 in 10.0 mi Calm Calm - N/A   Clear
7:35 AM 64.2 °F - 60.3 °F 87% 29.93 in 10.0 mi Calm Calm - N/A   Clear
7:55 AM 65.5 °F - 60.6 °F 84% 29.93 in 10.0 mi Calm Calm - N/A   Clear
8:15 AM 68.0 °F - 61.9 °F 81% 29.94 in 10.0 mi Calm Calm - N/A   Clear
8:35 AM 69.1 °F - 62.1 °F 78% 29.94 in 7.0 mi South 3.5 mph - N/A   Clear
8:55 AM 71.4 °F - 61.5 °F 71% 29.93 in 10.0 mi South 4.6 mph - N/A   Clear
9:15 AM 73.2 °F - 62.1 °F 68% 29.93 in 10.0 mi SSE 6.9 mph - N/A   Clear
9:35 AM 73.4 °F - 62.8 °F 69% 29.93 in 10.0 mi South 6.9 mph - N/A   Clear
9:55 AM 73.8 °F - 63.0 °F 69% 29.93 in 10.0 mi South 8.1 mph - N/A   Clear
10:15 AM 75.0 °F - 64.2 °F 69% 29.93 in 10.0 mi South 6.9 mph - N/A   Clear
10:35 AM 76.6 °F - 64.9 °F 67% 29.93 in 10.0 mi South 9.2 mph - N/A   Scattered Clouds
10:55 AM 77.2 °F - 65.7 °F 67% 29.93 in 10.0 mi SW 9.2 mph - N/A   Clear
11:15 AM 78.1 °F - 66.2 °F 67% 29.92 in 10.0 mi SSW 6.9 mph - N/A   Clear
11:35 AM 78.6 °F - 66.0 °F 65% 29.93 in 10.0 mi SW 10.4 mph - N/A   Clear
11:55 AM 79.0 °F - 65.8 °F 64% 29.93 in 10.0 mi SSW 10.4 mph - N/A   Scattered Clouds
12:15 PM 79.9 °F - 66.7 °F 64% 29.92 in 10.0 mi SSW 8.1 mph - N/A   Scattered Clouds
12:35 PM 80.8 °F 82.8 °F 65.8 °F 60% 29.91 in 10.0 mi SSW 8.1 mph - N/A   Scattered Clouds
12:55 PM 82.6 °F 85.1 °F 67.1 °F 59% 29.91 in 10.0 mi SW 4.6 mph - N/A   Clear
1:15 PM 82.8 °F 84.5 °F 65.3 °F 55% 29.90 in 10.0 mi SSW 10.4 mph 16.1 mph N/A   Scattered Clouds
1:35 PM 83.3 °F 85.3 °F 65.5 °F 55% 29.89 in 10.0 mi SW 11.5 mph 17.3 mph N/A   Scattered Clouds
1:55 PM 83.5 °F 84.9 °F 64.2 °F 52% 29.89 in 10.0 mi WSW 9.2 mph - N/A   Mostly Cloudy
2:15 PM 84.0 °F 85.2 °F 63.7 °F 50% 29.88 in 10.0 mi West 11.5 mph 19.6 mph N/A   Scattered Clouds
2:35 PM 84.2 °F 85.8 °F 64.6 °F 52% 29.88 in 10.0 mi WSW 11.5 mph - N/A   Scattered Clouds
2:55 PM 84.4 °F 85.2 °F 62.6 °F 48% 29.88 in 10.0 mi SW 13.8 mph 18.4 mph N/A   Scattered Clouds
3:15 PM 82.8 °F 83.3 °F 61.2 °F 48% 29.87 in 10.0 mi WSW 8.1 mph - N/A   Scattered Clouds
3:35 PM 84.7 °F 85.2 °F 62.1 °F 46% 29.86 in 10.0 mi WSW 9.2 mph - N/A   Scattered Clouds
3:55 PM 82.8 °F 83.6 °F 62.2 °F 50% 29.86 in 10.0 mi WSW 8.1 mph - N/A   Mostly Cloudy
4:15 PM 81.9 °F 82.6 °F 61.7 °F 50% 29.85 in 10.0 mi West 8.1 mph - N/A   Mostly Cloudy
4:35 PM 73.8 °F - 66.4 °F 78% 29.86 in 4.0 mi West 3.5 mph - N/A Rain Light Rain
4:55 PM 75.0 °F - 65.5 °F 72% 29.85 in 10.0 mi Calm Calm - N/A   Scattered Clouds
5:15 PM 76.1 °F - 68.7 °F 78% 29.85 in 10.0 mi Calm Calm - N/A   Scattered Clouds
5:35 PM 78.6 °F - 69.3 °F 73% 29.85 in 10.0 mi WSW 4.6 mph - N/A   Scattered Clouds
5:55 PM 77.7 °F - 66.0 °F 67% 29.85 in 10.0 mi West 5.8 mph - N/A   Clear
6:15 PM 77.9 °F - 64.9 °F 64% 29.85 in 10.0 mi WSW 5.8 mph - N/A   Clear
6:35 PM 77.2 °F - 64.2 °F 64% 29.85 in 10.0 mi Calm Calm - N/A   Clear
6:55 PM 74.3 °F - 67.3 °F 79% 29.84 in 10.0 mi Calm Calm - N/A   Clear
7:15 PM 74.8 °F - 66.7 °F 76% 29.84 in 10.0 mi Calm Calm - N/A   Clear
7:35 PM 76.1 °F - 64.4 °F 67% 29.84 in 10.0 mi South 3.5 mph - N/A   Clear
7:55 PM 76.6 °F - 64.2 °F 65% 29.85 in 10.0 mi SSE 4.6 mph - N/A Rain Light Rain
8:15 PM 76.3 °F - 63.9 °F 65% 29.85 in 10.0 mi SSE 6.9 mph - N/A   Scattered Clouds
8:35 PM 74.7 °F - 63.0 °F 67% 29.86 in 10.0 mi SSE 5.8 mph - N/A   Scattered Clouds
8:55 PM 73.9 °F - 62.1 °F 66% 29.86 in 10.0 mi South 6.9 mph - N/A   Mostly Cloudy
9:15 PM 72.7 °F - 61.2 °F 67% 29.84 in 10.0 mi SSE 5.8 mph - N/A   Scattered Clouds
9:35 PM 72.3 °F - 60.8 °F 67% 29.90 in 10.0 mi WNW 15.0 mph 24.2 mph N/A   Mostly Cloudy
9:55 PM 66.6 °F - 63.5 °F 90% 29.89 in 4.0 mi SW 8.1 mph - N/A Rain Rain
10:15 PM 65.8 °F - 64.0 °F 94% 29.90 in 10.0 mi Calm Calm - N/A Rain Light Rain
10:35 PM 64.8 °F - 63.9 °F 97% 29.90 in 10.0 mi Calm Calm - N/A Rain Light Rain
10:55 PM 64.6 °F - 63.9 °F 98% 29.90 in 3.0 mi ESE 4.6 mph - N/A Rain Rain
11:15 PM 64.8 °F - 64.2 °F 98% 29.90 in 10.0 mi ESE 3.5 mph - N/A   Mostly Cloudy
11:35 PM 64.6 °F - 64.0 °F 98% 29.89 in 10.0 mi SE 4.6 mph - N/A   Scattered Clouds
11:55 PM 65.3 °F - 63.5 °F 94% 29.90 in 10.0 mi South 3.5 mph - N/A   Mostly Cloudy